Regional Weather Roundup
Issued by NWS Charleston, WV

Home | Current Version | Previous Version | Graphics & Text | Print | Product List | Glossary On
Versions: 1 2 3 4 5 6 7 8 9 10 11 12 13 14 15 16 17 18 19 20 21 22 23 24 25 26 27 28 29 30 31 32 33 34 35 36 37 38 39 40 41 42 43 44 45 46 47 48 49 50
000
ASUS41 KRLX 071710
RWRRLX
West Virginia Regional Weather Roundup
National Weather Service Charleston WV
100 PM EDT TUE JUL 07 2015

Note: "fair" indicates few or no clouds below 12,000 feet with no
significant weather and/or obstructions to visibility.

WVZ003-071800-
Northern Panhandle of West Virginia

CITY           SKY/WX    TMP DP  RH WIND       PRES   REMARKS
WHEELING       PTSUNNY   82  70  66 S13G18    30.00F
$$

WVZ009-071800-
Northwest West Virginia

CITY           SKY/WX    TMP DP  RH WIND       PRES   REMARKS
PARKERSBURG    PTSUNNY   82  71  69 S10G21    30.04S
$$

WVZ006-071800-
Western West Virginia

CITY           SKY/WX    TMP DP  RH WIND       PRES   REMARKS
HUNTINGTON     MOSUNNY   83  70  64 SW12      30.04F
$$

WVZ015-071800-
West Central West Virginia

CITY           SKY/WX    TMP DP  RH WIND       PRES   REMARKS
CHARLESTON     PTSUNNY   84  69  60 S16G23    30.06F
$$

WVZ022-031-071800-
North Central West Virginia

CITY           SKY/WX    TMP DP  RH WIND       PRES   REMARKS
CLARKSBURG     MOSUNNY   82  69  64 S12       30.06F
MORGANTOWN     PTSUNNY   83  65  54 SW9       30.06F
$$

WVZ025-035-042-045-071800-
Southern West Virginia

CITY           SKY/WX    TMP DP  RH WIND       PRES   REMARKS
BECKLEY        PTSUNNY   78  66  66 W9G16     30.19F
LOGAN          PTSUNNY   79  70  73 S7        30.09F
BLUEFIELD      PTSUNNY   81  64  56 SW9       30.22S
LEWISBURG      PTSUNNY   80  64  57 SW5       30.19S
$$

WVZ047-071800-
Northern Mountains of West Virginia

CITY           SKY/WX    TMP DP  RH WIND       PRES   REMARKS
ELKINS         MOSUNNY   81  61  50 VRB6      30.13F
$$

WVZ052-071800-
Eastern Panhandle of West Virginia

CITY           SKY/WX    TMP DP  RH WIND       PRES   REMARKS
MARTINSBURG    MOSUNNY   84  68  58 VRB6      30.05F
PETERSBURG     SUNNY     84  62  46 S6        30.07S
$$


USA.gov is the U.S. government's official web portal to all federal, state and local government web resources and services.